sat.trackr.live / text

‹ back to catalog

STARLINK-5029

NORAD 53887 · 2022-119B

PAYLOAD ACTIVE UNKNOWN

§ Identity

Operator
Country
US
Launch date
2022-09-24
Launch site
AFETR
Launch vehicle
Mass (kg)
RCS (m²)

Purposes: comms

External: N2YO · Heavens-Above · Gunter

§ Orbital elements

Epoch: 2026-05-24T22:28:17.616864Z

Period
95.44 min
Inclination
53.2130°
Eccentricity
0.0001294
Mean motion
15.08861078 rev/d
Perigee alt
538.8 km
Apogee alt
540.6 km
Semi-major
6,917.8 km
B*
-2.2168e-4
RAAN
341.9454°
Arg perigee
86.2453°
Mean anomaly
273.8687°
Rev number
20,319

§ Raw data

STARLINK-50291 53887U 22119B   26144.93631501 -.00003816  00000+0 -22168-3 0  99922 53887  53.2130 341.9454 0001294  86.2453 273.8687 15.08861078203191

JSON: /api/v1/satellites/53887 · /tle

For live sub-satellite position, see the globe view (requires WebGL).

§ Visibility from observer

Set your observer location to see the next 7 days of passes ≥ 10°. The values pass through the URL so the page stays shareable.

No JS? Fill the form by hand. The geolocation button needs JavaScript.